Weather History for Fort Knox, KY

Change the Weather History Date:

Sunday, August 17, 2014

  Actual Average Record
Temperature  
Mean Temperature 72 °F -  
Max Temperature 75 °F 83 °F 96 °F (1999)
Min Temperature 68 °F 63 °F 55 °F (2004)
Cooling Degree Days 6    
Growing Degree Days 22 (Base 50)    
Moisture  
Dew Point 71 °F    
Average Humidity 99    
Maximum Humidity 100    
Minimum Humidity 89    
Precipitation  
Precipitation 1.79 in - - ()
Sea Level Pressure  
Sea Level Pressure 29.90 in    
Wind  
Wind Speed 5 mph (SE)    
Max Wind Speed 12 mph    
Max Gust Speed 23 mph    
Visibility 6 miles    
Events Rain , Thunderstorm    
Averages and records for this station are not official NWS values.
T = Trace of Precipitation, MM = Missing Value Source: NWS Daily Summary

Daily Weather History Graph

Daily Weather History Graph

Search for Another Location

Airport:

Trip Planner

Search our weather history database for the weather conditions in past years. The results will help you decide how hot, cold, wet, or windy it might be!

Date:

Astronomy

Aug. 17, 2014 Rise Set
Actual Time 7:00 AM EDT 8:34 PM EDT
Civil Twilight 6:33 AM EDT 9:02 PM EDT
Nautical Twilight 5:59 AM EDT 9:35 PM EDT
Astronomical Twilight 5:23 AM EDT 10:10 PM EDT
Moon 12:26 AM EDT (8/17) 2:38 PM EDT (8/17)
Length of Visible Light 14h 29m
Length of Day
13h 33m
Waning Gibbous, 48% of the Moon is Illuminated
Aug 17
Waning Gibbous
Aug 25
New
Sep 2
First Quarter
Sep 8
Full
Sep 15
Last Quarter

Hourly Weather History & Observations

Time (EDT) Temp. Dew Point Humidity Pressure Visibility Wind Dir Wind Speed Gust Speed Precip Events Conditions
12:58 AM 70.5 °F 70.5 °F 100% 29.98 in 8.0 mi East 4.6 mph - N/A   Mostly Cloudy
1:58 AM 70.3 °F 70.0 °F 99% 29.97 in 10.0 mi East 4.6 mph - N/A   Overcast
2:58 AM 70.0 °F 69.4 °F 98% 29.94 in 10.0 mi East 5.8 mph - N/A   Overcast
3:58 AM 70.0 °F 69.4 °F 98% 29.94 in 10.0 mi East 3.5 mph - N/A   Overcast
4:26 AM 69.8 °F 69.8 °F 100% 29.95 in 10.0 mi ESE 2.3 mph - N/A Rain Light Rain
4:35 AM 69.8 °F 69.8 °F 100% 29.95 in 10.0 mi SE 4.6 mph - N/A   Mostly Cloudy
4:58 AM 68.7 °F 68.7 °F 100% 29.94 in 8.0 mi East 3.5 mph - 0.00 in   Scattered Clouds
5:58 AM 69.3 °F 68.9 °F 99% 29.94 in 10.0 mi ENE 4.6 mph - N/A   Scattered Clouds
6:58 AM 69.4 °F 69.4 °F 100% 29.94 in 9.0 mi East 5.8 mph - N/A   Mostly Cloudy
7:58 AM 69.4 °F 69.4 °F 100% 29.94 in 10.0 mi East 4.6 mph - N/A   Scattered Clouds
8:22 AM 69.8 °F 69.8 °F 100% 29.94 in 8.0 mi East 5.8 mph - N/A Rain Light Rain
8:58 AM 69.8 °F 69.8 °F 100% 29.96 in 1.2 mi West 5.8 mph 23.0 mph 0.04 in Rain Heavy Rain
9:03 AM 69.8 °F 69.8 °F 100% 29.96 in 0.8 mi West 3.5 mph - N/A Rain Heavy Rain
9:08 AM 69.8 °F 69.8 °F 100% 29.96 in 1.2 mi Calm Calm - N/A Rain Light Rain
9:13 AM 69.8 °F 69.8 °F 100% 29.97 in 2.5 mi Calm Calm - N/A Rain Light Rain
9:16 AM 69.8 °F 69.8 °F 100% 29.97 in 2.0 mi WSW 2.3 mph - N/A Rain , Thunderstorm Thunderstorms and Rain
9:21 AM 69.8 °F 69.8 °F 100% 29.97 in 1.8 mi SW 3.5 mph - N/A Rain , Thunderstorm Thunderstorms and Rain
9:26 AM 69.8 °F 69.8 °F 100% 29.97 in 1.2 mi WSW 4.6 mph - N/A Rain , Thunderstorm Thunderstorms and Rain
9:31 AM 69.8 °F 69.8 °F 100% 29.97 in 0.8 mi WSW 4.6 mph - N/A Rain Heavy Rain
9:42 AM 68.0 °F 68.0 °F 100% 29.97 in 1.0 mi SSW 3.5 mph - N/A Rain Rain
9:47 AM 68.0 °F 68.0 °F 100% 29.98 in 1.5 mi SSW 4.6 mph - N/A Rain Rain
9:52 AM 68.0 °F 68.0 °F 100% 29.99 in 1.8 mi SW 6.9 mph - N/A Rain Light Rain
9:57 AM 68.0 °F 68.0 °F 100% 29.97 in 0.8 mi South 4.6 mph - N/A Rain Heavy Rain
9:58 AM 68.0 °F 68.0 °F 100% 29.97 in 0.8 mi South 4.6 mph - 0.37 in Rain Heavy Rain
10:08 AM 68.0 °F 68.0 °F 100% 29.96 in 2.0 mi SSE 5.8 mph - N/A Rain Rain
10:28 AM 69.8 °F 69.8 °F 100% 29.94 in 3.0 mi SE 4.6 mph - N/A Rain Light Rain
10:58 AM 69.6 °F 69.6 °F 100% 29.94 in 5.0 mi Variable 1.2 mph - 0.14 in Rain Light Rain
11:20 AM 69.8 °F 69.8 °F 100% 29.95 in 7.0 mi SE 2.3 mph - N/A   Mostly Cloudy
11:23 AM 69.8 °F 69.8 °F 100% 29.95 in 7.0 mi SE 1.2 mph - N/A Rain Light Rain
11:45 AM 71.6 °F 71.6 °F 100% 29.97 in 9.0 mi South 5.8 mph - N/A   Mostly Cloudy
11:51 AM 71.6 °F 71.6 °F 100% 29.96 in 8.0 mi SSE 6.9 mph - N/A Rain Light Rain
11:56 AM 71.6 °F 71.6 °F 100% 29.94 in 7.0 mi SE 8.1 mph - N/A Rain Light Rain
11:58 AM 71.6 °F 71.6 °F 100% 29.94 in 6.0 mi SE 8.1 mph - 0.00 in Rain Light Rain
12:03 PM 71.6 °F 71.6 °F 100% 29.94 in 5.0 mi SSE 11.5 mph - N/A Rain Light Rain
12:58 PM 70.7 °F 70.7 °F 100% 29.94 in 4.0 mi SSE 9.2 mph - 0.12 in Rain Light Rain
1:30 PM 71.6 °F 71.6 °F 100% 29.91 in 10.0 mi ESE 5.8 mph - N/A   Mostly Cloudy
1:58 PM 71.6 °F 71.6 °F 100% 29.91 in 10.0 mi SE 9.2 mph - 0.05 in   Mostly Cloudy
2:43 PM 73.4 °F 71.6 °F 94% 29.91 in 10.0 mi SE 11.5 mph - N/A   Overcast
2:48 PM 73.4 °F 71.6 °F 94% 29.91 in 10.0 mi ESE 8.1 mph - N/A   Overcast
2:58 PM 73.4 °F 72.0 °F 95% 29.91 in 10.0 mi SE 9.2 mph - N/A   Overcast
3:03 PM 73.4 °F 71.6 °F 94% 29.91 in 10.0 mi SSE 10.4 mph - N/A   Overcast
3:46 PM 75.2 °F 71.6 °F 89% 29.90 in 10.0 mi SSE 8.1 mph 20.7 mph N/A   Overcast
3:51 PM 75.2 °F 71.6 °F 89% 29.90 in 10.0 mi SSE 11.5 mph - N/A   Overcast
3:58 PM 74.7 °F 71.8 °F 91% 29.88 in 10.0 mi SE 11.5 mph - N/A   Overcast
4:55 PM 74.8 °F 72.1 °F 91% 29.88 in 10.0 mi SSE 10.4 mph - N/A   Overcast
5:57 PM 73.4 °F 71.6 °F 94% 29.86 in 10.0 mi SSE 8.1 mph - N/A   Overcast
6:58 PM 74.3 °F 72.9 °F 95% 29.86 in 10.0 mi SSE 4.6 mph - N/A   Overcast
7:16 PM 73.4 °F 73.4 °F 100% 29.86 in 5.0 mi South 6.9 mph - N/A Rain Light Rain
7:21 PM 73.4 °F 73.4 °F 100% 29.86 in 2.0 mi SSE 5.8 mph - N/A Rain Light Rain
7:26 PM 73.4 °F 73.4 °F 100% 29.87 in 1.0 mi South 10.4 mph - N/A Rain Rain
7:58 PM 72.5 °F 72.5 °F 100% 29.86 in 1.5 mi East 9.2 mph - 0.81 in Rain Rain
8:03 PM 71.6 °F 71.6 °F 100% 29.86 in 3.0 mi ENE 11.5 mph - N/A Rain Light Rain
8:08 PM 71.6 °F 71.6 °F 100% 29.86 in 3.0 mi ENE 8.1 mph - N/A Rain Light Rain
8:43 PM 71.6 °F 71.6 °F 100% 29.86 in 5.0 mi East 4.6 mph - N/A Rain Light Rain
8:55 PM 71.4 °F 71.4 °F 100% 29.84 in 7.0 mi East 4.6 mph - 0.12 in   Overcast
9:00 PM 71.6 °F 71.6 °F 100% 29.85 in 6.0 mi ESE 2.3 mph - N/A Rain Light Rain
9:15 PM 71.6 °F 71.6 °F 100% 29.85 in 7.0 mi East 6.9 mph - N/A Rain Light Rain
9:53 PM 71.6 °F 71.6 °F 100% 29.86 in 10.0 mi ENE 5.8 mph - N/A   Overcast
9:58 PM 71.6 °F 71.6 °F 100% 29.86 in 10.0 mi East 5.8 mph - N/A   Overcast
10:13 PM 71.6 °F 71.6 °F 100% 29.85 in 10.0 mi East 5.8 mph - N/A   Overcast
10:42 PM 71.6 °F 71.6 °F 100% 29.84 in 4.0 mi East 8.1 mph - N/A Rain Light Rain
10:52 PM 73.4 °F 73.4 °F 100% 29.84 in 4.0 mi East 5.8 mph - N/A Rain Light Rain
10:57 PM 71.6 °F 71.6 °F 100% 29.84 in 3.0 mi ESE 8.1 mph - N/A Rain Rain
10:58 PM 71.6 °F 71.6 °F 100% 29.83 in 3.0 mi SE 8.1 mph - 0.04 in Rain Rain
11:03 PM 71.6 °F 71.6 °F 100% 29.83 in 2.5 mi ESE 6.9 mph - N/A Rain Rain
11:08 PM 73.4 °F 73.4 °F 100% 29.83 in 2.5 mi ESE 8.1 mph - N/A Rain Rain
11:13 PM 73.4 °F 73.4 °F 100% 29.83 in 4.0 mi East 8.1 mph - N/A Rain Light Rain
11:18 PM 73.4 °F 73.4 °F 100% 29.83 in 5.0 mi East 5.8 mph - N/A Rain Light Rain
11:28 PM 73.4 °F 73.4 °F 100% 29.83 in 7.0 mi SE 3.5 mph - N/A Rain Light Rain
11:34 PM 73.4 °F 73.4 °F 100% 29.83 in 10.0 mi SE 4.6 mph - N/A   Overcast
11:39 PM 73.4 °F 73.4 °F 100% 29.83 in 10.0 mi ESE 3.5 mph - N/A   Overcast
11:44 PM 73.4 °F 73.4 °F 100% 29.83 in 10.0 mi East 4.6 mph - N/A   Overcast
11:49 PM 73.4 °F 73.4 °F 100% 29.82 in 10.0 mi East 5.8 mph - N/A   Overcast
11:58 PM 72.7 °F 72.7 °F 100% 29.81 in 8.0 mi East 6.9 mph - 0.10 in   Overcast